Algona
Saturday 10:55 PM
Temperature36° (45°/19°)
Dew Point28°
Feels Like30°
Relative Humidity75
%
Visibility10
mi
Pressure1020.0
mb
Wind DirectionESE
120°
Wind Speed7
mph
Precipitation Today0.00"

Last 30 Observations

Time PresWx Temp DP Feels RH% Vsby Pressure Ceiling Direction Speed 1h Precip
10:35 PM 36° 28° 31°75
%
10
mi
1020.0
mb
ESE
120°
6
mph
0.00"
10:15 PM 37° 30° 34°75
%
10
mi
1020.0
mb
ESE
110°
5
mph
0.00"
9:55 PM 37° 30° 33°75
%
10
mi
1020.0
mb
ESE
120°
6
mph
0.00"
9:35 PM 37° 28° 34°70
%
10
mi
1020.3
mb
ESE
110°
5
mph
0.00"
9:15 PM 39° 28° 36°65
%
10
mi
1020.3
mb
ESE
120°
5
mph
0.00"
8:55 PM 39° 28° 36°65
%
10
mi
1020.3
mb
ESE
120°
5
mph
0.00"
8:35 PM 39° 28° 37°65
%
10
mi
1020.3
mb
ESE
110°
3
mph
0.00"
8:15 PM 41° 28° 39°61
%
10
mi
1020.3
mb
SE
140°
3
mph
0.00"
7:55 PM 41° 28° 38°61
%
10
mi
1020.3
mb
ESE
120°
5
mph
0.00"
7:35 PM 41° 28° 38°61
%
10
mi
1020.3
mb
SE
130°
5
mph
0.00"
7:15 PM 43° 28° 39°57
%
10
mi
1020.3
mb
ESE
110°
6
mph
0.00"
6:55 PM 43° 28° 40°57
%
10
mi
1020.3
mb
SE
140°
5
mph
0.00"
6:35 PM 43° 28° 41°57
%
10
mi
1020.3
mb
SE
130°
3
mph
0.00"
6:15 PM 45° 28° 42°53
%
10
mi
1020.3
mb
E
90°
5
mph
0.00"
5:55 PM 45° 30° 57
%
10
mi
1020.3
mb
Calm 0.00"
5:35 PM 45° 27° 41°49
%
10
mi
1020.3
mb
ENE
70°
7
mph
0.00"
5:15 PM 45° 28° 41°53
%
10
mi
1020.7
mb
NE
50°
6
mph
0.00"
4:55 PM 43° 28° 39°57
%
10
mi
1020.7
mb
Variable 7
mph
0.00"
4:35 PM 43° 25° 39°49
%
10
mi
1021.0
mb
ESE
110°
7
mph
0.00"
4:15 PM 43° 25° 38°49
%
10
mi
1021.0
mb
ENE
60°
8
mph
0.00"
3:55 PM 41° 23° 39°48
%
10
mi
1021.0
mb
Variable 3
mph
0.00"
3:35 PM 43° 28° 38°57
%
10
mi
1021.3
mb
ENE
60°
8
mph
0.00"
3:15 PM 41° 25° 37°52
%
10
mi
1021.7
mb
Variable 6
mph
0.00"
2:55 PM 41° 25° 37°52
%
10
mi
1022.0
mb
ENE
60°
6
mph
0.00"
2:35 PM 39° 27° 34°60
%
10
mi
1022.0
mb
E
80°
8
mph
0.00"
2:15 PM 39° 25° 33°56
%
10
mi
1022.4
mb
ENE
70°
9
mph
0.00"
1:55 PM 37° 28° 31°70
%
10
mi
1022.7
mb
NE
40°
9
mph
0.00"
1:35 PM 37° 28° 32°70
%
10
mi
1023.0
mb
NE
40°
7
mph
0.00"
1:15 PM 36° 27° 29°69
%
10
mi
1023.4
mb
NNE
30°
8
mph
0.00"
12:55 PM 34° 27° 28°75
%
10
mi
1023.7
mb
Variable 7
mph
0.00"